Location: Asheville, NC
(35.6000°N, 82.5500°W)
Time: 23:03:19
(UTC-04:00)

Vanguard 1 - Pass Details

Date: 18 February 2018
Orbit: 650 x 3833 km, 34.2° (Epoch: 20 May)

Event Time Altitude Azimuth Distance (km) Brightness Sun altitude
Rises 20:23:36 0° 278° (W) 3,634 14.3 -26.7°
Reaches altitude 10° 20:26:38 10° 272° (W) 2,404 13.1 -27.4°
Enters shadow 20:31:10 41° 214° (SW) 986 10.2 -28.3°
Maximum altitude 20:31:30 41° 202° (SSW) 966 - -28.3°
Drops below altitude 10° 20:35:38 10° 131° (SE) 2,041 - -29.2°
Sets 20:38:02 0° 123° (ESE) 3,013 - -29.7°
